BEL4QE LOWW-EBBR

Flight info

Callsign BEL4QE
Flight time 1h 28m
Altitude 34000
Route MEDIX DCT RENKA/N0448F380 DCT INBED DCT TEKTU DCT TESGA DCT UMUPU T880 ADMUM/N0377F240 T880 BATTY
Aircraft A20N/M-SDE2E3FGHIRWXY/LB1

Departure

Time 2026-05-08 08:53
Airport Vienna International Airport (LOWW)

Arrival

Time 2026-05-08 10:22
Airport Brussels Airport (EBBR)
Time Latitude Longitude Altitude Speed Heading
2026-05-08 08:39 48.11996 16.57046 592 ft 0 kts 25°
2026-05-08 08:48 48.12003 16.57050 592 ft 3 kts 25°
2026-05-08 08:49 48.12039 16.57077 590 ft 8 kts 34°
2026-05-08 08:49 48.12035 16.57163 590 ft 9 kts 116°
2026-05-08 08:49 48.12004 16.57254 590 ft 9 kts 134°
2026-05-08 08:49 48.11941 16.57287 592 ft 9 kts 165°
2026-05-08 08:50 48.11883 16.57312 594 ft 8 kts 165°
2026-05-08 08:50 48.11821 16.57338 596 ft 10 kts 165°
2026-05-08 08:50 48.11740 16.57372 598 ft 13 kts 164°
2026-05-08 08:50 48.11642 16.57414 599 ft 16 kts 164°
2026-05-08 08:51 48.11525 16.57462 600 ft 15 kts 172°
2026-05-08 08:51 48.11415 16.57404 601 ft 18 kts 206°
2026-05-08 08:51 48.11300 16.57320 602 ft 18 kts 207°
2026-05-08 08:51 48.11174 16.57229 602 ft 19 kts 206°
2026-05-08 08:52 48.11079 16.57160 604 ft 10 kts 206°
2026-05-08 08:52 48.11066 16.57070 604 ft 5 kts 292°
2026-05-08 08:52 48.11068 16.57064 604 ft 0 kts 295°
2026-05-08 08:52 48.11076 16.57040 604 ft 10 kts 295°
2026-05-08 08:53 48.11175 16.56737 602 ft 67 kts 296°
2026-05-08 08:53 48.11486 16.55778 586 ft 135 kts 296°
2026-05-08 08:53 48.11976 16.54336 836 ft 166 kts 298°
2026-05-08 08:53 48.12489 16.52791 1494 ft 170 kts 299°
2026-05-08 08:54 48.13021 16.51269 2346 ft 164 kts 300°
2026-05-08 08:54 48.13559 16.49741 2870 ft 175 kts 300°
2026-05-08 08:54 48.14152 16.48062 3314 ft 192 kts 300°
2026-05-08 08:54 48.14810 16.46207 3701 ft 214 kts 300°
2026-05-08 08:55 48.15547 16.44149 4204 ft 234 kts 300°
2026-05-08 08:55 48.16342 16.41896 4751 ft 252 kts 295°
2026-05-08 08:55 48.16839 16.39303 5432 ft 265 kts 282°
2026-05-08 08:55 48.17152 16.36619 6350 ft 268 kts 280°
2026-05-08 08:56 48.17461 16.33874 7307 ft 269 kts 280°
2026-05-08 08:56 48.17782 16.31159 8250 ft 270 kts 280°
2026-05-08 08:56 48.18121 16.28424 9184 ft 272 kts 281°
2026-05-08 08:56 48.18473 16.25664 10105 ft 273 kts 281°
2026-05-08 08:57 48.18837 16.22852 10838 ft 282 kts 281°
2026-05-08 08:57 48.19222 16.19909 11291 ft 300 kts 281°
2026-05-08 08:57 48.19637 16.16762 11789 ft 315 kts 281°
2026-05-08 08:57 48.20064 16.13523 12570 ft 320 kts 281°
2026-05-08 08:58 48.20494 16.10276 13390 ft 323 kts 281°
2026-05-08 08:58 48.20934 16.06937 14166 ft 327 kts 281°
2026-05-08 08:58 48.21374 16.03601 14923 ft 331 kts 281°
2026-05-08 08:58 48.21817 16.00229 15683 ft 334 kts 281°
2026-05-08 08:59 48.22266 15.96814 16412 ft 338 kts 280°
2026-05-08 08:59 48.22714 15.93389 17120 ft 342 kts 280°
2026-05-08 08:59 48.23172 15.89879 17798 ft 346 kts 280°
2026-05-08 08:59 48.23635 15.86315 18487 ft 350 kts 280°
2026-05-08 09:00 48.24097 15.82741 19164 ft 353 kts 280°
2026-05-08 09:00 48.24558 15.79171 19843 ft 356 kts 280°
2026-05-08 09:00 48.25027 15.75529 20511 ft 359 kts 280°
2026-05-08 09:00 48.25500 15.71852 21176 ft 362 kts 280°
2026-05-08 09:01 48.25980 15.68108 21836 ft 365 kts 280°
2026-05-08 09:01 48.26457 15.64380 22469 ft 368 kts 281°
2026-05-08 09:01 48.26934 15.60640 23066 ft 371 kts 281°
2026-05-08 09:01 48.27416 15.56851 23653 ft 374 kts 281°
2026-05-08 09:02 48.27904 15.53013 24238 ft 376 kts 281°
2026-05-08 09:02 48.28396 15.49131 24823 ft 378 kts 280°
2026-05-08 09:02 48.28887 15.45254 25388 ft 380 kts 280°
2026-05-08 09:02 48.29385 15.41387 25914 ft 381 kts 281°
2026-05-08 09:03 48.29982 15.37527 26431 ft 383 kts 282°
2026-05-08 09:03 48.30606 15.33656 26912 ft 385 kts 282°
2026-05-08 09:03 48.31235 15.29755 27379 ft 387 kts 282°
2026-05-08 09:03 48.31873 15.25797 27845 ft 389 kts 282°
2026-05-08 09:04 48.32504 15.21866 28283 ft 391 kts 281°
2026-05-08 09:04 48.33135 15.17924 28713 ft 393 kts 281°
2026-05-08 09:04 48.33772 15.13938 29145 ft 394 kts 281°
2026-05-08 09:04 48.34404 15.09959 29565 ft 395 kts 281°
2026-05-08 09:05 48.35044 15.05936 30030 ft 395 kts 281°
2026-05-08 09:05 48.35674 15.01957 30596 ft 392 kts 281°
2026-05-08 09:05 48.36297 14.98012 31158 ft 390 kts 281°
2026-05-08 09:05 48.36922 14.94042 31671 ft 388 kts 281°
2026-05-08 09:06 48.37537 14.90128 32151 ft 386 kts 281°
2026-05-08 09:06 48.38148 14.86225 32613 ft 385 kts 281°
2026-05-08 09:06 48.38756 14.82334 33033 ft 384 kts 281°
2026-05-08 09:06 48.39362 14.78447 33439 ft 383 kts 281°
2026-05-08 09:07 48.39964 14.74578 33857 ft 381 kts 281°
2026-05-08 09:07 48.40562 14.70725 34258 ft 380 kts 281°
2026-05-08 09:07 48.41158 14.66879 34624 ft 379 kts 281°
2026-05-08 09:07 48.41750 14.63042 34885 ft 378 kts 281°
2026-05-08 09:08 48.42343 14.59196 35097 ft 379 kts 281°
2026-05-08 09:08 48.42932 14.55351 35293 ft 380 kts 281°
2026-05-08 09:08 48.43529 14.51465 35491 ft 381 kts 281°
2026-05-08 09:08 48.44127 14.47565 35647 ft 382 kts 281°
2026-05-08 09:09 48.44720 14.43670 35793 ft 383 kts 281°
2026-05-08 09:09 48.45306 14.39820 35943 ft 384 kts 281°
2026-05-08 09:09 48.45903 14.35900 36086 ft 385 kts 281°
2026-05-08 09:09 48.46498 14.31968 36257 ft 386 kts 280°
2026-05-08 09:10 48.47092 14.28035 36458 ft 387 kts 280°
2026-05-08 09:10 48.47691 14.24066 36630 ft 389 kts 280°
2026-05-08 09:10 48.48284 14.20110 36773 ft 391 kts 280°
2026-05-08 09:10 48.48887 14.16092 36932 ft 393 kts 280°
2026-05-08 09:11 48.49482 14.12113 37078 ft 395 kts 280°
2026-05-08 09:11 48.50082 14.08095 37239 ft 396 kts 280°
2026-05-08 09:11 48.50685 14.04039 37392 ft 398 kts 280°
2026-05-08 09:11 48.51289 13.99975 37540 ft 399 kts 280°
2026-05-08 09:12 48.51893 13.95897 37669 ft 401 kts 280°
2026-05-08 09:12 48.52495 13.91820 37790 ft 403 kts 280°
2026-05-08 09:12 48.53100 13.87708 37929 ft 404 kts 280°
2026-05-08 09:12 48.53711 13.83544 38054 ft 405 kts 280°
2026-05-08 09:13 48.54916 13.75304 38088 ft 407 kts 280°
2026-05-08 09:13 48.56125 13.66980 38084 ft 407 kts 280°
2026-05-08 09:14 48.57343 13.58640 38087 ft 408 kts 282°
2026-05-08 09:14 48.58953 13.50452 38086 ft 410 kts 288°
2026-05-08 09:15 48.61141 13.42523 38097 ft 412 kts 293°
2026-05-08 09:15 48.63665 13.34785 38083 ft 412 kts 293°
2026-05-08 09:16 48.66203 13.27038 38094 ft 413 kts 293°
2026-05-08 09:16 48.68738 13.19271 38084 ft 414 kts 293°
2026-05-08 09:17 48.71274 13.11467 38085 ft 414 kts 293°
2026-05-08 09:17 48.73810 13.03643 38094 ft 414 kts 293°
2026-05-08 09:18 48.76324 12.95855 38089 ft 415 kts 293°
2026-05-08 09:18 48.78842 12.88035 38099 ft 415 kts 293°
2026-05-08 09:19 48.81364 12.80175 38098 ft 415 kts 293°
2026-05-08 09:19 48.83870 12.72343 38087 ft 415 kts 293°
2026-05-08 09:20 48.86385 12.64458 38083 ft 416 kts 293°
2026-05-08 09:20 48.88899 12.56545 38089 ft 417 kts 293°
2026-05-08 09:21 48.91408 12.48628 38093 ft 417 kts 293°
2026-05-08 09:23 49.00143 12.20871 38085 ft 417 kts 292°
2026-05-08 09:23 49.02610 12.12975 38089 ft 418 kts 292°
2026-05-08 09:24 49.05093 12.05001 38089 ft 418 kts 292°
2026-05-08 09:24 49.07570 11.97016 38094 ft 419 kts 292°
2026-05-08 09:25 49.10048 11.89007 38095 ft 420 kts 293°
2026-05-08 09:25 49.12530 11.80958 38100 ft 419 kts 292°
2026-05-08 09:26 49.14981 11.72983 38107 ft 418 kts 292°
2026-05-08 09:26 49.17445 11.64943 38101 ft 418 kts 293°
2026-05-08 09:27 49.19887 11.56946 38097 ft 418 kts 292°
2026-05-08 09:27 49.22326 11.48935 38101 ft 418 kts 292°
2026-05-08 09:28 49.24768 11.40881 38094 ft 418 kts 292°
2026-05-08 09:28 49.27192 11.32859 38094 ft 418 kts 292°
2026-05-08 09:29 49.29616 11.24810 38094 ft 417 kts 292°
2026-05-08 09:29 49.32031 11.16765 38099 ft 418 kts 292°
2026-05-08 09:30 49.34449 11.08678 38106 ft 418 kts 292°
2026-05-08 09:30 49.36912 11.00660 38106 ft 419 kts 295°
2026-05-08 09:31 49.39866 10.92954 38106 ft 421 kts 301°
2026-05-08 09:31 49.43362 10.85765 38105 ft 423 kts 307°
2026-05-08 09:32 49.47108 10.78883 38104 ft 422 kts 307°
2026-05-08 09:32 49.50888 10.71954 38103 ft 422 kts 307°
2026-05-08 09:33 49.54641 10.65043 38107 ft 422 kts 307°
2026-05-08 09:33 49.58384 10.58126 38109 ft 423 kts 307°
2026-05-08 09:34 49.62133 10.51179 38106 ft 423 kts 307°
2026-05-08 09:34 49.65871 10.44233 38107 ft 423 kts 307°
2026-05-08 09:35 49.69608 10.37272 38105 ft 423 kts 307°
2026-05-08 09:35 49.73347 10.30282 38106 ft 423 kts 307°
2026-05-08 09:36 49.77081 10.23290 38105 ft 422 kts 307°
2026-05-08 09:36 49.80792 10.16320 38111 ft 422 kts 307°
2026-05-08 09:37 49.84496 10.09344 38111 ft 421 kts 307°
2026-05-08 09:37 49.88204 10.02341 38111 ft 421 kts 307°
2026-05-08 09:38 49.91899 9.95344 38115 ft 422 kts 307°
2026-05-08 09:38 49.95591 9.88333 38118 ft 423 kts 307°
2026-05-08 09:39 49.99300 9.81271 38119 ft 423 kts 307°
2026-05-08 09:39 50.03005 9.74200 38120 ft 422 kts 307°
2026-05-08 09:40 50.06696 9.67136 38118 ft 422 kts 307°
2026-05-08 09:40 50.10384 9.60059 38115 ft 422 kts 307°
2026-05-08 09:41 50.14061 9.52983 38110 ft 422 kts 307°
2026-05-08 09:41 50.17733 9.45892 38112 ft 422 kts 306°
2026-05-08 09:42 50.21411 9.38768 38113 ft 422 kts 307°
2026-05-08 09:42 50.25084 9.31631 38114 ft 423 kts 306°
2026-05-08 09:43 50.28758 9.24474 38112 ft 423 kts 305°
2026-05-08 09:43 50.32103 9.16970 38110 ft 421 kts 298°
2026-05-08 09:44 50.34816 9.08983 38110 ft 418 kts 292°
2026-05-08 09:44 50.36905 9.00520 38108 ft 416 kts 286°
2026-05-08 09:45 50.38617 8.91913 38107 ft 417 kts 285°
2026-05-08 09:45 50.40322 8.83236 38108 ft 416 kts 285°
2026-05-08 09:46 50.42016 8.74617 38104 ft 416 kts 285°
2026-05-08 09:46 50.43701 8.65975 38107 ft 416 kts 284°
2026-05-08 09:47 50.44984 8.57154 38103 ft 415 kts 278°
2026-05-08 09:47 50.45889 8.48249 38104 ft 415 kts 277°
2026-05-08 09:48 50.46767 8.39376 38106 ft 415 kts 277°
2026-05-08 09:48 50.47653 8.30382 38106 ft 415 kts 277°
2026-05-08 09:49 50.48523 8.21482 38109 ft 415 kts 277°
2026-05-08 09:49 50.49390 8.12538 38111 ft 415 kts 277°
2026-05-08 09:50 50.50249 8.03619 38115 ft 415 kts 277°
2026-05-08 09:50 50.51100 7.94683 38111 ft 416 kts 277°
2026-05-08 09:51 50.51947 7.85732 38109 ft 416 kts 277°
2026-05-08 09:51 50.52787 7.76778 38103 ft 416 kts 277°
2026-05-08 09:52 50.53620 7.67817 38100 ft 416 kts 277°
2026-05-08 09:52 50.54447 7.58834 38099 ft 416 kts 277°
2026-05-08 09:53 50.55262 7.49896 38100 ft 416 kts 277°
2026-05-08 09:53 50.55860 7.40837 38097 ft 416 kts 272°
2026-05-08 09:54 50.55972 7.31790 38096 ft 416 kts 269°
2026-05-08 09:54 50.56030 7.22756 38095 ft 415 kts 269°
2026-05-08 09:55 50.55991 7.13695 38094 ft 415 kts 267°
2026-05-08 09:55 50.55798 7.04681 38093 ft 414 kts 267°
2026-05-08 09:56 50.55596 6.95683 38090 ft 414 kts 267°
2026-05-08 09:56 50.55386 6.86670 38093 ft 415 kts 267°
2026-05-08 09:57 50.55150 6.73101 38091 ft 416 kts 270°
2026-05-08 09:57 50.55622 6.64055 38015 ft 417 kts 277°
2026-05-08 09:58 50.56100 6.59579 37453 ft 422 kts 279°
2026-05-08 09:58 50.56645 6.55068 36793 ft 425 kts 279°
2026-05-08 09:58 50.57201 6.50533 36150 ft 426 kts 279°
2026-05-08 09:58 50.57758 6.45954 35711 ft 428 kts 279°
2026-05-08 09:59 50.58311 6.41381 35274 ft 429 kts 279°
2026-05-08 09:59 50.58867 6.36739 34780 ft 430 kts 279°
2026-05-08 09:59 50.59413 6.32143 33982 ft 433 kts 278°
2026-05-08 09:59 50.59964 6.27486 33154 ft 435 kts 278°
2026-05-08 10:00 50.60516 6.22818 32334 ft 437 kts 278°
2026-05-08 10:00 50.61068 6.18152 31512 ft 439 kts 279°
2026-05-08 10:00 50.61621 6.13462 30678 ft 441 kts 279°
2026-05-08 10:00 50.62175 6.08733 29799 ft 442 kts 279°
2026-05-08 10:01 50.62731 6.03967 28910 ft 442 kts 279°
2026-05-08 10:01 50.63276 5.99258 28036 ft 442 kts 279°
2026-05-08 10:01 50.63820 5.94544 27172 ft 442 kts 279°
2026-05-08 10:01 50.64379 5.89791 26448 ft 438 kts 281°
2026-05-08 10:02 50.65160 5.85242 26000 ft 430 kts 287°
2026-05-08 10:02 50.66246 5.80885 25427 ft 425 kts 293°
2026-05-08 10:02 50.67525 5.76764 24856 ft 420 kts 295°
2026-05-08 10:02 50.68852 5.72661 24312 ft 414 kts 295°
2026-05-08 10:03 50.70139 5.68695 23799 ft 408 kts 295°
2026-05-08 10:03 50.71420 5.64733 23286 ft 403 kts 295°
2026-05-08 10:03 50.72682 5.60813 22785 ft 398 kts 295°
2026-05-08 10:03 50.73917 5.56959 22289 ft 393 kts 295°
2026-05-08 10:04 50.75140 5.53130 21794 ft 389 kts 295°
2026-05-08 10:04 50.76339 5.49369 21305 ft 385 kts 295°
2026-05-08 10:04 50.77539 5.45600 20817 ft 382 kts 295°
2026-05-08 10:04 50.78713 5.41903 20321 ft 378 kts 295°
2026-05-08 10:05 50.79892 5.38188 19830 ft 375 kts 295°
2026-05-08 10:05 50.81038 5.34568 19350 ft 372 kts 295°
2026-05-08 10:05 50.82197 5.30901 18857 ft 369 kts 295°
2026-05-08 10:05 50.83336 5.27289 18365 ft 367 kts 295°
2026-05-08 10:06 50.84458 5.23728 17892 ft 364 kts 295°
2026-05-08 10:06 50.85593 5.20122 17402 ft 362 kts 295°
2026-05-08 10:06 50.86678 5.16628 16927 ft 359 kts 292°
2026-05-08 10:06 50.87498 5.12900 16440 ft 355 kts 283°
2026-05-08 10:07 50.87904 5.09103 16001 ft 350 kts 274°
2026-05-08 10:07 50.88086 5.05542 15582 ft 347 kts 273°
2026-05-08 10:07 50.88253 5.01547 15095 ft 345 kts 272°
2026-05-08 10:07 50.88406 4.97783 14627 ft 343 kts 273°
2026-05-08 10:08 50.88560 4.94068 14176 ft 341 kts 273°
2026-05-08 10:08 50.88712 4.90489 13734 ft 339 kts 273°
2026-05-08 10:08 50.88869 4.86780 13285 ft 336 kts 273°
2026-05-08 10:08 50.89027 4.83099 12833 ft 334 kts 273°
2026-05-08 10:09 50.89181 4.79499 12381 ft 332 kts 273°
2026-05-08 10:09 50.89311 4.76437 12013 ft 330 kts 273°
2026-05-08 10:09 50.89456 4.73012 11594 ft 328 kts 273°
2026-05-08 10:09 50.89607 4.69411 11148 ft 326 kts 273°
2026-05-08 10:10 50.89746 4.66044 10734 ft 324 kts 273°
2026-05-08 10:10 50.89891 4.62514 10382 ft 318 kts 273°
2026-05-08 10:10 50.90023 4.59317 10260 ft 305 kts 273°
2026-05-08 10:10 50.90157 4.56038 10133 ft 293 kts 273°
2026-05-08 10:11 50.90336 4.52867 9975 ft 283 kts 277°
2026-05-08 10:11 50.90603 4.49792 9612 ft 281 kts 277°
2026-05-08 10:11 50.90882 4.46716 9253 ft 280 kts 278°
2026-05-08 10:11 50.91154 4.43712 8912 ft 278 kts 277°
2026-05-08 10:12 50.91425 4.40702 8565 ft 276 kts 278°
2026-05-08 10:12 50.91692 4.37702 8230 ft 275 kts 277°
2026-05-08 10:12 50.91958 4.34705 7890 ft 273 kts 277°
2026-05-08 10:12 50.92215 4.31796 7559 ft 272 kts 277°
2026-05-08 10:13 50.92475 4.28843 7232 ft 270 kts 277°
2026-05-08 10:13 50.92734 4.25895 6898 ft 268 kts 277°
2026-05-08 10:13 50.92989 4.22979 6571 ft 267 kts 277°
2026-05-08 10:13 50.93241 4.20106 6254 ft 265 kts 277°
2026-05-08 10:14 50.93472 4.17214 5932 ft 264 kts 271°
2026-05-08 10:14 50.93127 4.14398 5580 ft 261 kts 240°
2026-05-08 10:14 50.91964 4.12260 5260 ft 257 kts 217°
2026-05-08 10:14 50.90567 4.10556 4954 ft 256 kts 216°
2026-05-08 10:15 50.89128 4.08882 4620 ft 255 kts 208°
2026-05-08 10:15 50.87458 4.08178 4282 ft 251 kts 176°
2026-05-08 10:15 50.85791 4.08835 3967 ft 247 kts 154°
2026-05-08 10:15 50.84247 4.10003 3664 ft 246 kts 153°
2026-05-08 10:16 50.82742 4.11222 3450 ft 239 kts 142°
2026-05-08 10:16 50.81732 4.13166 3397 ft 222 kts 109°
2026-05-08 10:16 50.81526 4.15459 3366 ft 209 kts 85°
2026-05-08 10:16 50.81814 4.17690 3364 ft 209 kts 71°
2026-05-08 10:17 50.82359 4.19776 3350 ft 200 kts 64°
2026-05-08 10:17 50.82923 4.21559 3304 ft 190 kts 64°
2026-05-08 10:17 50.83537 4.23525 3181 ft 184 kts 65°
2026-05-08 10:17 50.84067 4.25304 2939 ft 178 kts 65°
2026-05-08 10:18 50.84577 4.27067 2677 ft 174 kts 66°
2026-05-08 10:18 50.85070 4.28794 2424 ft 169 kts 65°
2026-05-08 10:18 50.85544 4.30457 2181 ft 160 kts 66°
2026-05-08 10:18 50.85990 4.32020 1966 ft 146 kts 66°
2026-05-08 10:19 50.86382 4.33388 1783 ft 131 kts 65°
2026-05-08 10:19 50.86755 4.34690 1621 ft 129 kts 66°
2026-05-08 10:19 50.87128 4.35987 1462 ft 129 kts 65°
2026-05-08 10:20 50.87870 4.38564 1136 ft 128 kts 66°
2026-05-08 10:20 50.88235 4.39834 968 ft 128 kts 64°
2026-05-08 10:20 50.88605 4.41113 793 ft 127 kts 65°
2026-05-08 10:20 50.88976 4.42399 622 ft 127 kts 66°
2026-05-08 10:21 50.89333 4.43675 453 ft 127 kts 64°
2026-05-08 10:21 50.89719 4.44951 287 ft 127 kts 64°
2026-05-08 10:21 50.90079 4.46216 141 ft 127 kts 65°
2026-05-08 10:21 50.90424 4.47405 109 ft 100 kts 66°
2026-05-08 10:22 50.90640 4.48156 108 ft 49 kts 64°
2026-05-08 10:22 50.90757 4.48564 107 ft 38 kts 65°
2026-05-08 10:22 50.90863 4.48927 108 ft 34 kts 65°
2026-05-08 10:22 50.90945 4.49214 109 ft 24 kts 67°
2026-05-08 10:23 50.90983 4.49453 108 ft 20 kts 85°
2026-05-08 10:23 50.90973 4.49630 108 ft 10 kts 111°
2026-05-08 10:23 50.90924 4.49672 110 ft 6 kts 198°
2026-05-08 10:23 50.90890 4.49654 111 ft 4 kts 199°
2026-05-08 10:24 50.90865 4.49641 112 ft 3 kts 195°
2026-05-08 10:24 50.90842 4.49631 113 ft 4 kts 194°
2026-05-08 10:24 50.90802 4.49602 115 ft 9 kts 224°
2026-05-08 10:24 50.90761 4.49469 118 ft 16 kts 247°
2026-05-08 10:25 50.90707 4.49283 121 ft 21 kts 245°
2026-05-08 10:25 50.90643 4.49062 120 ft 22 kts 244°
2026-05-08 10:25 50.90579 4.48838 117 ft 23 kts 245°
2026-05-08 10:25 50.90527 4.48661 116 ft 16 kts 245°
2026-05-08 10:26 50.90483 4.48508 115 ft 13 kts 245°
2026-05-08 10:26 50.90451 4.48437 116 ft 6 kts 188°
2026-05-08 10:26 50.90412 4.48456 117 ft 5 kts 155°
2026-05-08 10:26 50.90383 4.48478 118 ft 3 kts 155°
2026-05-08 10:27 50.90377 4.48482 119 ft 0 kts 155°